Probability
0 0 0 0 0 0 0 0 0 0 0 0 0 0 0 0 0 0 0 0 0 0 0 0 0 0 0 0 0 0 0 0 0 0 0 0 0 0 0 0 0 0 0 0 0 0 0 0 0
0 0 0 0 0 0 0 0 0 0 0 0 0 0 0 0 0 0 0 0 0 0 0 0 0 0 0 0 0 0 0 0 0 0 0 0 0 0 0 0 0 0 0 0 0 0 0 0 0
0 0 0 0 0 0 0 0 0 0 0 0 0 0 0 0 0 0 0 0 0 0 0 2 4 4 2 0 1 1 0 0 0 0 0 0 0 0 0 0 0 0 0 0 0 0 0 0 0
0 0 0 0 0 0 0 0 0 0 0 0 0 0 0 0 0 0 0 0 1 1 1 6 15 15 8 4 3 2 1 0 1 1 0 0 0 0 0 0 0 0 0 0 0 0 0 0 0
0 0 0 0 0 0 0 0 0 0 0 0 0 0 0 0 0 0 0 1 3 4 5 13 26 28 20 13 8 6 3 2 1 1 0 0 0 0 0 0 0 0 0 0 0 0 0 0 0
0 0 0 0 0 0 0 0 0 0 0 0 0 0 0 0 0 0 1 3 7 11 14 20 30 34 31 26 19 14 9 4 1 1 0 0 0 0 0 0 0 0 0 0 0 0 0 0 0
0 0 0 0 0 0 0 0 0 0 0 0 0 0 0 0 0 0 1 4 10 18 24 27 32 36 38 36 32 25 15 7 2 0 0 0 0 0 0 0 0 0 0 0 0 0 0 0 0
0 0 0 0 0 0 0 0 0 0 0 0 0 0 1 1 1 2 4 8 13 21 28 34 40 41 41 41 38 29 17 7 2 1 0 0 0 0 0 0 0 0 0 0 0 0 0 0 0
0 0 0 0 0 0 0 0 0 0 0 0 0 0 4 9 10 9 11 16 21 26 30 36 43 45 44 42 38 28 16 7 3 1 0 0 1 1 0 0 0 0 0 0 0 0 0 0 0
0 0 0 0 0 0 0 0 0 0 0 0 1 4 14 27 27 22 20 22 26 30 33 37 44 47 48 44 36 27 18 10 4 2 1 2 2 2 1 0 0 0 0 0 0 1 1 0 1
0 0 0 0 0 0 0 0 0 0 0 1 2 11 30 47 46 37 30 26 28 33 38 43 49 51 49 43 35 29 23 15 8 5 5 5 4 2 1 0 0 1 1 0 1 2 2 2 2
0 0 0 0 0 0 0 0 0 0 0 2 6 20 43 57 56 48 41 36 34 36 42 51 55 53 46 40 36 32 28 20 13 11 10 9 6 4 2 1 1 2 2 1 2 3 3 3 3
0 0 0 0 0 0 0 0 1 1 1 6 16 31 48 56 55 51 48 46 43 41 46 54 55 50 43 38 35 33 30 25 19 15 14 13 11 9 6 3 2 3 3 2 2 3 3 4 4
0 0 0 0 0 0 0 2 3 4 6 15 28 41 48 49 47 45 46 48 47 46 49 53 52 46 39 33 31 31 30 28 25 20 17 16 15 14 11 6 3 2 1 2 2 2 2 3 5
0 0 0 0 0 0 0 4 9 13 17 26 36 42 43 42 39 36 39 45 46 47 49 49 47 43 38 32 30 32 32 30 28 24 21 18 15 15 13 9 4 1 1 2 2 3 2 3 3
0 0 0 0 0 0 1 5 13 19 24 32 38 39 38 36 33 30 34 42 46 46 45 42 41 40 37 34 34 37 36 31 27 27 25 20 16 15 13 9 5 3 2 4 5 5 4 2 2
0 0 0 0 0 0 1 6 12 17 24 32 37 36 33 30 26 25 30 39 44 43 40 37 34 33 33 33 34 38 38 30 24 23 22 20 17 15 11 8 5 4 4 5 7 6 5 3 2
0 0 0 0 0 0 2 6 9 13 20 28 31 30 28 25 20 20 26 33 36 36 34 30 26 24 24 24 25 29 30 24 19 17 15 15 14 12 9 7 5 4 4 5 5 4 2 2 2
0 0 0 0 0 0 2 5 8 11 15 20 21 21 22 21 18 18 23 25 25 24 23 20 16 14 14 13 15 17 17 15 13 11 9 8 8 7 6 5 4 4 4 4 3 1 0 1 1
0 0 0 0 0 0 1 4 7 9 10 12 11 12 14 16 17 17 17 17 15 13 11 9 6 6 5 6 8 8 7 7 6 5 4 3 3 3 4 4 4 4 3 3 2 1 0 0 0
0 0 0 0 0 0 1 2 5 6 7 7 7 7 10 11 11 10 9 8 7 6 4 2 1 1 1 2 2 3 2 2 1 1 1 1 1 1 2 3 3 3 3 2 1 0 0 0 0
0 0 0 0 0 0 0 1 2 3 3 3 3 5 5 5 4 4 3 2 2 1 1 0 0 0 0 0 0 0 0 0 0 0 0 0 0 0 1 2 2 2 2 1 0 0 0 0 0
0 0 0 0 0 0 0 0 1 2 1 0 0 1 2 1 0 0 0 0 0 0 0 0 0 0 0 0 0 0 0 0 0 0 0 0 0 0 0 1 1 0 0 0 0 0 0 0 0
0 0 0 0 0 0 0 0 0 1 1 0 0 0 0 0 0 0 0 0 0 0 0 0 0 0 0 0 0 0 0 0 0 0 0 0 0 0 0 0 0 0 0 0 0 0 0 0 0
0 0 0 0 0 0 0 0 0 0 0 0 0 0 0 0 0 0 0 0 0 0 0 0 0 0 0 0 0 0 0 0 0 0 0 0 0 0 0 0 0 0 0 0 0 0 0 0 0
0 0 0 0 0 0 0 0 0 0 0 0 0 0 0 0 0 0 0 0 0 0 0 0 0 0 0 0 0 0 0 0 0 0 0 0 0 0 0 0 0 0 0 0 0 0 0 0 0
0 0 0 0 0 0 0 0 0 0 0 0 0 0 0 0 0 0 0 0 0 0 0 0 0 0 0 0 0 0 0 0 0 0 0 0 0 0 0 0 0 0 0 0 0 0 0 0 0
0 0 0 0 0 0 0 0 0 0 0 0 0 0 0 0 0 0 0 0 0 0 0 0 0 0 0 0 0 0 0 0 0 0 0 0 0 0 0 0 0 0 0 0 0 0 0 0 0
0 0 0 0 0 0 0 0 0 0 0 0 0 0 0 0 0 0 0 0 0 0 0 0 0 0 0 0 0 0 0 0 0 0 0 0 0 0 0 0 0 0 0 0 0 0 0 0 0
0 0 0 0 0 0 0 0 0 0 0 0 0 0 0 0 0 0 0 0 0 0 0 0 0 0 0 0 0 0 0 0 0 0 0 0 0 0 0 0 0 0 0 0 0 0 0 0 0
Wind_Speed
14 10 4 2 1 0 4 5 3 3 3 2 2 2 4 4 5 4 1 10 16 14 13 16 19 19 18 17 16 16 15 15 15 14 14 14 14 14 13 12 12 11 10 10 9 9 9 9 9
7 7 2 2 1 1 5 4 2 2 1 0 2 3 3 1 1 4 5 8 15 14 11 13 19 19 18 17 16 15 15 15 14 14 13 13 13 13 12 12 11 10 10 9 9 8 8 8 8
6 3 3 2 1 3 5 3 2 1 1 1 3 3 2 1 4 6 5 11 13 12 10 13 21 19 18 17 16 15 15 14 14 13 13 13 12 12 12 11 10 10 10 9 9 8 8 8 8
4 2 3 2 4 5 5 4 2 1 1 3 4 3 2 1 6 6 12 14 14 11 9 12 21 19 18 17 16 15 14 14 13 13 13 12 12 11 11 11 10 10 9 9 9 8 8 8 8
2 3 2 2 6 6 4 3 2 1 0 1 3 3 1 3 7 12 15 15 15 11 8 11 20 19 18 17 17 16 15 14 13 13 13 12 12 11 11 11 10 10 9 9 9 8 8 8 8
3 3 2 3 6 6 4 2 2 1 0 1 3 3 0 3 8 12 14 13 13 13 9 9 19 19 18 17 16 16 15 15 14 14 13 13 12 12 11 11 11 11 10 10 10 9 9 9 9
4 4 3 4 4 5 3 1 0 1 1 2 4 4 1 4 6 10 11 11 11 11 9 7 10 14 18 17 17 16 15 15 14 14 13 13 13 12 12 11 11 11 11 11 11 11 10 10 10
4 4 2 3 4 5 3 2 1 2 3 1 4 5 5 6 9 9 9 9 9 10 8 7 7 7 8 10 16 16 15 15 15 14 14 14 13 13 13 11 11 12 12 12 12 12 12 12 11
4 4 3 4 4 5 3 3 3 1 1 1 3 3 4 14 15 11 9 8 9 11 9 6 6 6 6 6 10 13 15 14 14 12 14 13 6 6 7 10 12 13 14 14 14 14 13 13 12
4 3 7 6 4 5 5 4 3 1 2 3 2 2 10 17 16 14 13 13 14 13 12 8 7 6 5 6 5 4 4 5 5 4 5 4 4 4 7 8 14 14 14 15 15 14 14 11 6
5 6 5 6 5 5 4 3 2 3 5 8 6 6 13 15 13 12 11 11 11 10 10 9 8 6 5 4 2 2 2 2 3 5 5 4 3 4 5 3 6 7 10 7 8 8 6 6 5
3 6 5 5 3 3 4 3 2 5 9 4 3 8 11 13 12 10 9 7 6 6 7 6 7 6 6 4 2 2 2 3 3 5 5 4 3 4 4 4 5 4 4 4 4 3 5 6 7
3 5 4 6 7 5 4 3 3 6 7 2 6 9 9 8 7 6 6 6 6 5 5 5 5 5 4 3 3 3 4 4 4 4 5 6 5 6 5 4 4 5 4 4 4 4 4 5 5
4 5 8 8 6 4 3 2 3 8 4 5 8 9 8 7 7 7 6 6 6 6 6 5 6 5 4 3 3 2 3 3 3 4 5 7 6 6 5 5 4 4 4 3 3 3 3 3 3
2 5 8 5 4 2 4 6 8 12 4 8 9 10 11 9 8 7 5 5 5 5 5 5 5 4 4 3 3 3 3 3 4 4 4 6 6 7 6 5 4 3 3 3 2 2 1 2 2
3 3 5 7 7 4 5 3 13 13 7 10 11 11 11 10 9 7 5 4 4 5 5 4 3 3 3 3 4 3 3 3 4 3 3 6 8 8 5 4 4 3 2 2 2 2 2 2 2
4 3 4 7 10 6 9 6 10 12 11 13 12 11 11 11 11 9 6 5 4 4 4 3 2 3 3 3 2 3 3 3 3 3 3 5 7 6 5 4 3 3 2 2 2 2 2 2 2
2 2 3 3 5 11 11 8 10 11 12 13 12 11 11 11 9 7 7 7 6 5 5 3 1 1 1 1 1 1 1 2 1 2 3 4 4 5 4 3 4 4 3 2 2 2 2 2 2
2 1 2 1 2 8 10 10 11 11 12 12 11 10 10 9 7 7 8 7 7 6 6 5 4 3 2 1 1 0 1 1 1 2 4 5 5 5 5 4 4 4 4 3 3 2 2 1 0
3 1 0 2 4 6 7 9 8 10 10 9 9 9 8 7 7 8 8 8 7 6 6 6 5 5 4 2 1 0 1 1 2 2 3 4 4 4 5 5 4 4 3 3 3 3 2 1 1
2 3 3 3 3 4 4 5 5 5 7 9 9 8 7 7 7 7 8 7 6 7 6 6 5 5 5 4 2 1 1 1 1 2 2 2 3 3 3 4 4 4 4 4 4 4 4 2 1
2 2 3 3 4 1 1 1 1 1 4 6 7 7 7 6 6 5 5 5 5 4 4 4 4 5 4 4 4 4 2 1 2 2 2 2 1 1 1 2 3 4 3 4 4 4 3 3 2
1 3 3 3 4 4 4 3 2 0 1 2 2 3 4 4 4 4 3 3 3 3 3 3 3 4 4 5 5 4 3 1 1 2 3 3 2 2 3 2 1 3 3 4 4 4 4 3 3
2 5 5 5 5 3 2 1 3 2 2 2 1 0 1 2 2 2 2 2 2 2 2 2 3 4 3 4 4 4 3 2 3 3 3 3 2 2 4 3 2 1 2 3 4 4 5 5 4
5 6 5 6 5 3 2 1 4 1 2 3 3 2 1 2 2 3 3 2 2 2 1 1 1 1 1 2 2 2 2 2 2 1 1 1 2 2 3 3 3 2 2 2 3 4 5 5 5
2 6 6 3 4 4 2 2 3 2 2 2 2 2 2 3 4 5 5 5 5 5 4 3 2 2 2 2 2 2 2 1 1 1 1 1 1 2 2 2 2 3 3 2 2 3 4 4 5
3 3 3 6 1 1 4 4 3 2 1 1 2 2 4 5 6 6 6 7 7 6 6 5 5 5 5 4 4 4 3 3 3 3 2 2 2 2 2 2 2 2 2 2 2 2 3 4 5
5 6 5 4 3 2 4 3 3 3 3 3 3 4 5 5 6 7 7 7 6 6 6 6 7 7 7 6 5 5 5 5 5 4 4 4 4 3 3 3 3 3 3 2 2 2 3 3 4
5 4 5 4 3 3 2 4 2 3 3 3 3 4 5 6 7 7 7 6 6 6 6 7 7 8 8 8 7 7 7 6 5 5 6 6 5 5 5 4 4 4 4 3 3 3 4 4 4
3 3 3 3 1 2 2 5 3 2 1 0 1 3 4 5 6 6 7 6 6 7 7 7 8 8 9 9 8 8 8 7 7 8 8 7 7 6 6 6 5 5 5 4 4 5 4 4 5
Wind_Direction
141 137 134 131 111 316 269 258 248 308 343 356 113 145 150 158 184 215 86 141 138 147 157 163 161 157 154 151 149 148 148 148 148 149 150 153 155 157 159 160 160 160 158 155 152 150 146 144 141
141 148 139 110 119 339 283 258 286 305 201 75 58 63 64 79 67 108 128 141 141 146 154 160 162 159 156 154 153 153 154 154 154 155 156 158 160 162 163 165 165 165 164 161 161 159 156 153 152
153 167 121 111 195 219 268 278 267 285 152 108 74 57 75 193 146 155 154 142 138 145 152 164 163 162 159 157 157 159 160 161 162 162 164 166 168 169 171 172 172 173 172 172 173 171 168 165 165
145 84 70 70 262 245 243 271 277 274 79 76 105 80 65 46 158 154 143 145 143 147 152 168 164 164 163 162 163 165 167 169 171 172 173 175 177 178 179 180 181 183 183 184 184 183 181 179 179
86 95 65 319 269 265 259 259 265 281 49 77 114 120 78 22 114 134 145 150 151 151 156 171 166 167 167 167 169 171 174 177 180 182 183 185 186 188 189 189 192 194 195 196 196 197 196 195 194
79 80 88 276 274 280 280 273 328 322 194 119 112 125 199 113 134 148 151 152 155 156 159 168 170 171 171 173 175 178 181 183 187 190 191 193 195 197 199 200 202 204 206 208 209 209 209 210 210
131 129 198 245 282 295 288 305 236 262 262 198 138 140 203 160 158 148 145 143 149 157 158 167 171 174 176 178 181 184 188 191 194 198 199 201 203 206 209 211 214 216 218 220 221 221 221 221 221
154 127 232 262 266 277 292 319 268 217 240 170 139 162 212 176 139 129 125 132 149 161 165 167 166 168 172 179 188 191 195 198 201 204 207 209 212 215 219 220 225 228 230 231 231 231 231 230 229
119 90 231 239 237 266 291 299 293 278 195 221 190 187 175 133 134 133 134 143 163 173 176 170 166 165 165 175 195 197 202 205 207 211 215 216 218 222 228 232 233 237 239 239 239 238 237 236 234
115 166 229 231 224 260 280 256 251 305 296 273 264 101 124 137 150 156 164 170 176 181 183 180 174 169 167 187 195 199 206 207 208 207 221 217 208 221 231 240 244 245 247 248 246 243 242 240 233
167 203 241 260 259 259 262 260 206 169 241 232 219 161 147 152 160 167 174 177 180 178 181 185 183 175 179 190 188 197 203 207 214 215 216 219 218 225 235 234 250 255 257 254 251 247 233 227 225
227 245 243 267 278 278 241 237 211 209 233 244 193 146 151 158 167 171 172 166 153 159 176 176 180 183 189 191 206 204 208 215 221 222 217 216 224 227 228 233 235 238 242 243 239 232 231 229 230
250 265 271 265 276 252 240 239 240 261 271 2 88 116 137 150 154 141 133 131 133 148 166 167 167 182 195 198 219 218 218 223 229 229 225 221 226 232 229 231 233 235 233 232 231 225 228 230 232
260 277 284 280 267 239 178 342 11 308 327 68 90 100 109 114 114 107 110 123 140 156 164 157 160 168 186 205 217 245 242 234 231 233 240 233 230 234 230 229 228 229 226 224 221 219 220 229 232
300 306 310 298 301 278 121 31 356 327 42 86 86 86 81 74 77 87 105 120 140 151 155 154 166 157 164 193 217 239 250 245 236 231 241 248 243 236 227 226 222 222 217 211 211 221 213 227 233
15 11 325 318 348 356 99 46 357 350 56 72 73 75 74 63 58 63 77 103 128 130 132 146 164 155 168 191 205 227 240 237 238 227 233 247 243 236 214 209 214 203 188 183 189 197 198 221 232
24 8 318 331 4 35 72 60 359 8 55 67 66 70 72 61 47 42 52 71 90 107 117 126 151 167 185 209 210 198 221 233 236 230 216 237 240 227 206 198 199 179 168 177 192 182 189 207 231
298 322 330 353 19 61 74 60 23 24 53 63 63 65 65 60 45 36 41 52 61 67 69 65 53 65 121 177 239 197 205 234 247 228 216 224 234 219 196 190 190 175 167 172 177 179 182 204 234
233 260 304 304 112 74 74 62 34 26 43 52 53 55 57 56 51 43 39 39 44 40 40 41 10 5 22 19 348 10 251 252 257 243 224 221 216 208 193 191 189 183 178 180 179 163 161 192 184
195 188 200 74 98 103 93 69 47 37 42 44 49 51 52 47 41 40 41 40 36 35 29 39 21 15 10 351 23 254 254 256 248 249 232 226 217 211 205 196 192 184 172 169 172 156 151 174 152
194 187 198 168 109 88 109 57 31 36 44 48 47 46 44 45 39 28 30 33 34 38 31 32 33 26 13 3 16 355 14 354 303 277 263 258 237 221 209 206 199 186 174 181 185 169 163 175 193
255 238 181 157 129 70 96 121 317 15 28 33 32 31 28 27 33 32 29 28 28 36 46 44 40 40 27 25 37 43 35 3 326 315 323 324 324 304 260 225 207 198 190 188 190 177 169 163 184
209 59 80 89 112 75 31 104 269 199 14 15 23 29 23 17 25 30 23 18 20 31 51 53 56 49 41 49 52 57 51 25 347 1 3 357 358 11 5 331 253 217 208 204 198 182 181 178 179
113 73 56 50 66 54 334 120 261 226 196 188 198 164 11 348 344 351 346 346 359 7 21 36 60 52 44 60 65 73 70 49 38 23 11 1 353 3 7 352 327 263 225 218 213 205 197 195 192
63 74 28 4 11 268 292 179 244 214 160 175 192 200 240 272 281 283 286 295 292 287 280 311 76 60 28 70 84 101 110 96 82 41 4 354 344 338 342 345 330 309 275 242 220 216 216 203 202
67 120 145 204 234 279 333 258 260 153 136 138 152 185 225 256 264 267 266 265 265 264 263 259 245 240 244 226 221 214 186 171 190 208 223 257 264 274 292 316 321 320 309 290 242 228 227 216 215
90 75 138 127 117 327 297 301 320 130 179 191 196 216 245 258 264 264 264 262 261 263 262 258 256 256 252 242 238 242 233 222 224 229 231 240 252 262 277 297 308 304 307 302 282 252 248 231 225
84 131 87 98 124 296 307 305 289 277 254 236 227 236 252 262 268 271 270 266 267 266 269 268 257 254 255 252 244 242 238 235 232 229 236 239 244 247 263 272 276 286 289 286 282 270 267 257 245
19 52 85 95 131 150 284 288 302 284 269 227 236 250 261 267 270 273 274 275 275 273 268 265 264 263 264 258 253 253 252 247 243 241 242 239 240 241 242 247 252 257 262 261 259 262 261 255 260
67 63 126 122 161 147 186 271 336 354 27 110 283 298 296 290 284 283 280 281 280 277 274 266 262 260 260 260 259 256 255 251 245 244 244 238 237 238 236 235 239 246 245 237 237 250 249 246 251